TimeEDT,TemperatureF,Dew PointF,Humidity,Sea Level PressureIn,VisibilityMPH,Wind Direction,Wind SpeedMPH,Gust SpeedMPH,PrecipitationIn,Events,Conditions,WindDirDegrees,DateUTC
12:15 AM,55.4,55.4,100,30.10,4.0,South,3.5,-,N/A,,Scattered Clouds,180,2013-09-25 04:15:00
12:35 AM,55.4,55.4,100,30.09,4.0,South,5.8,-,N/A,,Mostly Cloudy,190,2013-09-25 04:35:00
12:55 AM,55.4,55.4,100,30.09,3.0,South,6.9,-,N/A,,Scattered Clouds,180,2013-09-25 04:55:00
1:15 AM,55.4,55.4,100,30.08,4.0,South,5.8,-,N/A,,Overcast,170,2013-09-25 05:15:00
1:35 AM,55.4,55.4,100,30.08,2.5,South,3.5,-,N/A,,Overcast,170,2013-09-25 05:35:00
1:55 AM,55.4,55.4,100,30.07,3.0,South,4.6,-,N/A,,Scattered Clouds,180,2013-09-25 05:55:00
2:15 AM,55.4,55.4,100,30.07,3.0,South,5.8,-,N/A,,Scattered Clouds,180,2013-09-25 06:15:00
2:35 AM,55.4,55.4,100,30.07,2.5,SSW,3.5,-,N/A,,Mostly Cloudy,200,2013-09-25 06:35:00
2:55 AM,55.4,55.4,100,30.07,2.0,South,4.6,-,N/A,,Overcast,190,2013-09-25 06:55:00
3:35 AM,55.4,55.4,100,30.05,0.2,Calm,Calm,-,N/A,Fog,Fog,0,2013-09-25 07:35:00
3:55 AM,53.6,53.6,100,30.05,0.2,Calm,Calm,-,N/A,Fog,Fog,0,2013-09-25 07:55:00
4:15 AM,53.6,53.6,100,30.04,0.2,Calm,Calm,-,N/A,Fog,Fog,0,2013-09-25 08:15:00
4:35 AM,53.6,53.6,100,30.03,0.2,Calm,Calm,-,N/A,Fog,Fog,0,2013-09-25 08:35:00
4:55 AM,51.8,51.8,100,30.04,0.2,Calm,Calm,-,N/A,Fog,Fog,0,2013-09-25 08:55:00
5:35 AM,53.6,53.6,100,30.03,1.0,SSE,3.5,-,N/A,,Mist,150,2013-09-25 09:35:00
5:55 AM,53.6,53.6,100,30.03,2.5,SSE,3.5,-,N/A,,Scattered Clouds,160,2013-09-25 09:55:00
6:15 AM,53.6,53.6,100,30.03,0.2,Calm,Calm,-,N/A,Fog,Fog,0,2013-09-25 10:15:00
6:35 AM,53.6,53.6,100,30.03,0.2,Calm,Calm,-,N/A,Fog,Fog,0,2013-09-25 10:35:00
6:55 AM,53.6,53.6,100,30.03,0.2,South,3.5,-,N/A,Fog,Fog,170,2013-09-25 10:55:00
7:15 AM,53.6,53.6,100,30.05,0.2,SW,4.6,-,N/A,Fog,Fog,220,2013-09-25 11:15:00
7:35 AM,53.6,53.6,100,30.06,0.2,SSW,4.6,-,N/A,Fog,Fog,210,2013-09-25 11:35:00
7:55 AM,53.6,53.6,100,30.06,0.2,SSW,3.5,-,N/A,Fog,Fog,200,2013-09-25 11:55:00
8:15 AM,55.4,55.4,100,30.06,0.2,South,5.8,-,N/A,Fog,Fog,180,2013-09-25 12:15:00
8:35 AM,53.6,53.6,100,30.06,0.5,Calm,Calm,-,N/A,Fog,Fog,0,2013-09-25 12:35:00
8:55 AM,55.4,55.4,100,30.06,5.0,Calm,Calm,-,N/A,,Mostly Cloudy,0,2013-09-25 12:55:00
9:15 AM,55.4,55.4,100,30.06,1.2,ESE,4.6,-,N/A,,Overcast,120,2013-09-25 13:15:00
9:35 AM,55.4,55.4,100,30.06,0.2,SE,3.5,-,N/A,Fog,Fog,140,2013-09-25 13:35:00
9:55 AM,55.4,55.4,100,30.05,0.2,ENE,4.6,-,N/A,Fog,Fog,70,2013-09-25 13:55:00
10:15 AM,55.4,55.4,100,30.04,0.2,ENE,5.8,-,N/A,Fog,Fog,70,2013-09-25 14:15:00
10:35 AM,55.4,55.4,100,30.05,0.2,ESE,5.8,-,N/A,Fog,Fog,120,2013-09-25 14:35:00
10:55 AM,55.4,55.4,100,30.04,0.5,ENE,6.9,-,N/A,Fog,Fog,70,2013-09-25 14:55:00
11:15 AM,55.4,55.4,100,30.06,2.5,ESE,3.5,-,N/A,,Overcast,120,2013-09-25 15:15:00
11:35 AM,55.4,55.4,100,30.06,4.0,NE,3.5,-,N/A,,Overcast,50,2013-09-25 15:35:00
11:55 AM,59.0,55.4,88,30.05,10.0,East,6.9,-,N/A,,Overcast,100,2013-09-25 15:55:00
12:15 PM,59.0,53.6,82,30.06,10.0,SE,5.8,-,N/A,,Mostly Cloudy,140,2013-09-25 16:15:00
12:35 PM,59.0,53.6,82,30.06,10.0,ESE,4.6,-,N/A,,Mostly Cloudy,110,2013-09-25 16:35:00
12:55 PM,57.2,55.4,94,30.06,10.0,SE,4.6,-,N/A,,Overcast,130,2013-09-25 16:55:00
1:15 PM,59.0,55.4,88,30.06,10.0,East,3.5,-,N/A,,Overcast,90,2013-09-25 17:15:00
1:35 PM,57.2,55.4,94,30.06,10.0,SSE,3.5,-,N/A,,Overcast,160,2013-09-25 17:35:00
2:15 PM,57.2,55.4,94,30.04,10.0,SE,4.6,-,N/A,,Overcast,140,2013-09-25 18:15:00
2:55 PM,57.2,55.4,94,30.03,10.0,SSE,4.6,-,N/A,,Scattered Clouds,160,2013-09-25 18:55:00
3:15 PM,57.2,55.4,94,30.03,10.0,SSE,4.6,-,N/A,Rain,Light Rain,150,2013-09-25 19:15:00
3:35 PM,57.2,55.4,94,30.03,10.0,SSE,3.5,-,N/A,,Mostly Cloudy,150,2013-09-25 19:35:00
3:55 PM,59.0,51.8,77,30.03,10.0,SSE,3.5,-,N/A,,Scattered Clouds,160,2013-09-25 19:55:00
4:15 PM,57.2,55.4,94,30.02,10.0,Calm,Calm,-,N/A,,Mostly Cloudy,0,2013-09-25 20:15:00
4:35 PM,57.2,55.4,94,30.02,10.0,ESE,3.5,-,N/A,,Mostly Cloudy,110,2013-09-25 20:35:00
4:55 PM,57.2,53.6,88,30.02,10.0,SE,3.5,-,N/A,,Mostly Cloudy,140,2013-09-25 20:55:00
5:15 PM,57.2,55.4,94,30.02,10.0,Calm,Calm,-,N/A,,Mostly Cloudy,0,2013-09-25 21:15:00
5:35 PM,57.2,55.4,94,30.02,10.0,Calm,Calm,-,N/A,,Scattered Clouds,0,2013-09-25 21:35:00
5:55 PM,57.2,55.4,94,30.02,10.0,Calm,Calm,-,N/A,,Mostly Cloudy,0,2013-09-25 21:55:00
6:15 PM,55.4,53.6,94,30.02,10.0,SSE,3.5,-,N/A,,Overcast,160,2013-09-25 22:15:00
6:35 PM,55.4,53.6,94,30.02,10.0,SSE,3.5,-,N/A,,Overcast,150,2013-09-25 22:35:00
6:55 PM,55.4,55.4,100,30.02,10.0,South,3.5,-,N/A,,Overcast,180,2013-09-25 22:55:00
7:15 PM,55.4,55.4,100,30.03,10.0,Calm,Calm,-,N/A,,Overcast,0,2013-09-25 23:15:00
7:35 PM,55.4,53.6,94,30.01,10.0,SE,3.5,-,N/A,,Overcast,130,2013-09-25 23:35:00
7:55 PM,55.4,53.6,94,30.01,10.0,Calm,Calm,-,N/A,,Overcast,0,2013-09-25 23:55:00
8:15 PM,55.4,53.6,94,30.02,10.0,Calm,Calm,-,N/A,,Overcast,0,2013-09-26 00:15:00
8:35 PM,55.4,53.6,94,30.03,10.0,Calm,Calm,-,N/A,,Overcast,0,2013-09-26 00:35:00
8:55 PM,55.4,53.6,94,30.04,10.0,Calm,Calm,-,N/A,,Overcast,0,2013-09-26 00:55:00
9:15 PM,55.4,53.6,94,30.04,10.0,Calm,Calm,-,N/A,,Overcast,0,2013-09-26 01:15:00
9:35 PM,55.4,53.6,94,30.04,10.0,Calm,Calm,-,N/A,,Overcast,0,2013-09-26 01:35:00
9:55 PM,55.4,53.6,94,30.05,10.0,Calm,Calm,-,N/A,,Overcast,0,2013-09-26 01:55:00
10:15 PM,55.4,53.6,94,30.05,10.0,Calm,Calm,-,N/A,,Overcast,0,2013-09-26 02:15:00
10:35 PM,55.4,53.6,94,30.04,10.0,Calm,Calm,-,N/A,,Overcast,0,2013-09-26 02:35:00
10:55 PM,55.4,53.6,94,30.05,10.0,Calm,Calm,-,N/A,,Overcast,0,2013-09-26 02:55:00
11:15 PM,55.4,53.6,94,30.04,7.0,Calm,Calm,-,N/A,,Overcast,0,2013-09-26 03:15:00
11:35 PM,55.4,53.6,94,30.05,10.0,Calm,Calm,-,N/A,,Overcast,0,2013-09-26 03:35:00
11:55 PM,55.4,53.6,94,30.05,10.0,Calm,Calm,-,N/A,,Overcast,0,2013-09-26 03:55:00